Location: Sungai Buloh
(3.1000°N, 113.0000°E)
Time: 22:16:47
(UTC+00:00)

Resurs 01 Rocket - Pass Details

Date: 12 January 2026
Orbit: 627 x 635 km, 97.7° (Epoch: 11 February)

Event Time Altitude Azimuth Distance (km) Brightness Sun altitude
Rises 12:05:01 0° 175° (S) 2,916 5.2 -21.7°
Reaches altitude 10° 12:07:14 10° 178° (S) 2,006 4.4 -22.2°
Maximum altitude 12:11:34 62° 259° (W) 706 2.0 -23.2°
Drops below altitude 10° 12:15:51 10° 339° (NNW) 1,995 4.1 -24.2°
Enters shadow 12:17:33 - 342° (NNW) 2,693 4.8 -24.6°
